Header for Extended Forecast Station List Page

Search by: ID | Name | Date | Parm | Value | Avg | % Avg
Sort by: ID | Name | Date | Parm | Value | Avg | % Avg

Enter search or view all records.

Click on id for station plot
#IDNameDateParmValueAvg% Avg
0HWRI1BIG LOST-AT HOWELL RANCH NEAR CHILLY10-22-2018DISCHARGE (KAF)2221104
1MACI1BIG LOST-MACKAY RESERVOIR NEAR MACKAY10-22-2018INFLOW (KAF)385720
2HALI1BIG WOOD-AT HAILEY10-22-2018DISCHARGE (KAF)3939101
3MAGI1BIG WOOD-MAGIC DAM10-22-2018INFLOW (KAF)252790
4BITM8BITTERROOT-NEAR MISSOULA10-22-2018DISCHARGE (KAF)15922471
5BONM8BLACKFOOT-NEAR BONNER10-22-2018DISCHARGE (KAF)138134103
6BIGI1BOISE-AT GLENWOOD BRIDGE10-22-2018DISCHARGE (KAF)5536153
7LUCI1BOISE-LUCKY PEAK DAM10-22-2018INFLOW (KAF)43MM
8PARI1BOISE-NEAR PARMA10-22-2018DISCHARGE (KAF)18520989
9HOTI1BRUNEAU-NEAR HOT SPRINGS10-22-2018DISCHARGE (KAF)172862
10BULO3BULLY CREEK-BULLY CREEK DAM10-22-2018INFLOW (KAF)33104
11BUDW1BUMPING-BUMPING LAKE DAM10-22-2018INFLOW (KAF)163643
12CHDW1CHELAN-LAKE CHELAN DAM10-22-2018INFLOW (KAF)15615899
13ABOM8CLARK FORK-ABOVE MISSOULA10-22-2018DISCHARGE (KAF)367341108
14DLGM8CLARK FORK-AT DEER LODGE10-22-2018DISCHARGE (KAF)7362117
15SRGM8CLARK FORK-AT ST REGIS10-22-2018DISCHARGE (KAF)67274690
16BELM8CLARK FORK-BELOW MISSOULA10-22-2018DISCHARGE (KAF)52957093
17CABI1CLARK FORK-CABINET GORGE DAM10-22-2018INFLOW (KAF)2881366979
18NOXM8CLARK FORK-NOXON RAPIDS DAM10-22-2018INFLOW (KAF)2623351375
19DRMM8CLARK FORK-NR DRUMMOND10-22-2018DISCHARGE (KAF)153MM
20CLUW1CLE ELUM-CLE ELUM LAKE10-22-2018INFLOW (KAF)5410452
21ORFI1CLEARWATER-AT OROFINO10-22-2018DISCHARGE (KAF)31867747
22SPDI1CLEARWATER-AT SPALDING10-22-2018DISCHARGE (KAF)783161548
23COEI1COEUR D ALENE-COEUR D ALENE LAKE10-22-2018INFLOW (KAF)22869933
24CIBW1COLUMBIA-AT INTL BOUNDARY10-22-2018DISCHARGE (KAF)18727MM
25BONO3COLUMBIA-BONNEVILLE DAM10-22-2018INFLOW (KAF)295433655281
26CHJW1COLUMBIA-CHIEF JOSEPH DAM10-22-2018INFLOW (KAF)204952145296
27GCDW1COLUMBIA-GRAND COULEE DAM10-22-2018INFLOW (KAF)1940117239113
28JDAO3COLUMBIA-JOHN DAY DAM10-22-2018INFLOW (KAF)282063067892
29MCDW1COLUMBIA-MCNARY DAM10-22-2018INFLOW (KAF)270472968491
30PRWW1COLUMBIA-PRIEST RAPIDS DAM10-22-2018INFLOW (KAF)2158420109107
31RRHW1COLUMBIA-ROCKY REACH DAM10-22-2018INFLOW (KAF)214042232996
32TDAO3COLUMBIA-THE DALLES DAM10-22-2018INFLOW (KAF)288723435584
33WANW1COLUMBIA-WANAPUM DAM10-22-2018INFLOW (KAF)2158619761109
34WELW1COLUMBIA-WELLS DAM10-22-2018INFLOW (KAF)208152183195
35DEDI1DEADWOOD-NEAR LOWMAN10-22-2018INFLOW (KAF)151982
36MODO3DESCHUTES-AT MOODY NR BIGGS10-22-2018DISCHARGE (KAF)1329139795
37ARDW1ENTIAT-NEAR ARDENVOIR10-22-2018DISCHARGE (KAF)222298
38CHEI1FALL RIVER-NEAR CHESTER10-22-2018DISCHARGE (KAF)113112100
39CFMM8FLATHEAD-AT COLUMBIA FALLS10-22-2018DISCHARGE (KAF)884117575
40KERM8FLATHEAD-KERR DAM10-22-2018INFLOW (KAF)986149566
41TRYO3GRANDE RONDE-TROY10-22-2018DISCHARGE (KAF)18930462
42REXI1HENRYS FORK-AT REXBURG10-22-2018DISCHARGE (KAF)437430102
43ANTI1HENRYS FORK-AT ST. ANTHONY10-22-2018DISCHARGE (KAF)349341102
44IPDI1HENRYS FORK-ISLAND PARK DAM10-22-2018INFLOW (KAF)8211671
45HODO3HOOD-NEAR TUCKER BRIDGE10-22-2018DISCHARGE (KAF)232232100
46SERO3JOHN DAY-AT SERVICE CK10-22-2018DISCHARGE (KAF)13320465
47KADW1KACHESS-KACHESS DAM10-22-2018INFLOW (KAF)274660
48LAUW1KETTLE-AT LAURIER10-22-2018DISCHARGE (KAF)8012564
49PITW1KLICKITAT-NEAR PITT10-22-2018DISCHARGE (KAF)22128378
50BFEI1KOOTENAI-AT BONNERS FERRY10-22-2018STAGE (FT)MMM
51LEOI1KOOTENAI-AT LEONIA10-22-2018DISCHARGE (KAF)24451513162
52LYDM8KOOTENAI-LIBBY DAM10-22-2018INFLOW (KAF)74888485
53LWRI1LITTLE WOOD-LITTLE WOOD DAM10-22-2018INFLOW (KAF)121580
54BERO3MALHEUR-AGENCY VALLEY DAM10-22-2018INFLOW (KAF)111667
55VALO3MALHEUR-NEAR VALE10-22-2018DISCHARGE (KAF)202773
56WRMO3MALHEUR-WARM SPRINGS DAM10-22-2018INFLOW (KAF)172375
57MYKO3MCKAY CREEK-NEAR PILOT ROCK10-22-2018DISCHARGE (KAF)1817104
58PATW1METHOW-NEAR PATEROS10-22-2018DISCHARGE (KAF)979899
59WGCM8MF FLATHEAD-NEAR WEST GLACIER10-22-2018DISCHARGE (KAF)10516663
60CLFW1NACHES-NEAR CLIFFDEL10-22-2018DISCHARGE (KAF)5710554
61NACW1NACHES-NEAR NACHES10-22-2018DISCHARGE (KAF)397949
62DWRI1NF CLEARWATER-DWORSHAK DAM10-22-2018INFLOW (KAF)25252148
63FCFM8NF FLATHEAD-NEAR COLUMBIA FALLS10-22-2018DISCHARGE (KAF)10518955
64MONO3NF JOHN DAY-AT MONUMENT10-22-2018DISCHARGE (KAF)6311156
65CSDI1NF PAYETTE-CASCADE DAM10-22-2018INFLOW (KAF)749478
66TONW1OKANOGAN-NEAR TONASKET10-22-2018DISCHARGE (KAF)22328179
67OWYO3OWYHEE-OWYHEE DAM10-22-2018INFLOW (KAF)648476
68EMMI1PAYETTE-NEAR EMMETT10-22-2018DISCHARGE (KAF)28135080
69ALFW1PEND OREILLE-ALBENI FALLS DAM10-22-2018INFLOW (KAF)2968428069
70HOPI1PEND OREILLE-PEND OREILLE LAKE NR HOPE10-22-2018LAKE ELEVATION (FT)MMM
71PIHI1PORTNEUF-AT POCATELLO10-22-2018DISCHARGE (KAF)586392
72PRTI1PRIEST-NEAR PRIEST RIVER10-22-2018DISCHARGE (KAF)9723441
73RCCM8ROCK CREEK-NEAR CLINTON10-22-2018DISCHARGE (KAF)6148127
74WHBI1SALMON-AT WHITEBIRD10-22-2018DISCHARGE (KAF)1045106798
75ARAI1SF BOISE-ANDERSON RANCH DAM10-22-2018INFLOW (KAF)667589
76HHWM8SF FLATHEAD-HUNGRY HORSE DAM10-22-2018INFLOW (KAF)13224354
77PLDI1SF SNAKE-PALISADES DAM10-22-2018INFLOW (KAF)60362497
78SIFI1SNAKE-AB EAGLE ROCK NR IDAHO FALLS10-22-2018DISCHARGE (KAF)63181677
79AFRI1SNAKE-AMERICAN FALLS RESERVOIR10-22-2018INFLOW (KAF)1212147582
80SNAI1SNAKE-AT BLACKFOOT10-22-2018DISCHARGE (KAF)53973473
81MILI1SNAKE-AT MILNER10-22-2018DISCHARGE (KAF)6357111
82WEII1SNAKE-AT WEISER10-22-2018DISCHARGE (KAF)2590363271
83SWAI1SNAKE-BELOW SWAN FALLS10-22-2018DISCHARGE (KAF)1804256070
84BRNI1SNAKE-BROWNLEE DAM10-22-2018INFLOW (KAF)2766374274
85IHDW1SNAKE-ICE HARBOR DAM10-22-2018INFLOW (KAF)4840757664
86JLKW4SNAKE-JACKSON LAKE AT DAM10-22-2018INFLOW (KAF)10411392
87LGSW1SNAKE-LITTLE GOOSE DAM10-22-2018INFLOW (KAF)4794757063
88LGDW1SNAKE-LOWER GRANITE DAM10-22-2018INFLOW (KAF)4794752064
89LMNW1SNAKE-LOWER MONUMENTAL DAM10-22-2018INFLOW (KAF)4840766163
90ALPW4SNAKE-NEAR ALPINE10-22-2018DISCHARGE (KAF)38338699
91ANAW1SNAKE-NEAR ANATONE10-22-2018DISCHARGE (KAF)4011569870
92BFTI1SNAKE-NEAR BLACKFOOT10-22-2018DISCHARGE (KAF)55478870
93HEII1SNAKE-NEAR HEISE10-22-2018DISCHARGE (KAF)36158662
94JKSW4SNAKE-NEAR JACKSON10-22-2018DISCHARGE (KAF)327308106
95SHYI1SNAKE-NEAR SHELLEY10-22-2018DISCHARGE (KAF)62680478
96LLKW1SPOKANE-AT LONGLAKE10-22-2018INFLOW (KAF)515116444
97SPOW1SPOKANE-AT SPOKANE10-22-2018DISCHARGE (KAF)328MM
98SJMI1ST JOE-AT ST MARIES10-22-2018STAGE (FT)MMM
99SATI1ST MARIES-NEAR SANTA10-22-2018DISCHARGE (KAF)143442
100STRM8ST. REGIS-NEAR ST. REGIS10-22-2018DISCHARGE (KAF)183846
101TNAW1TEANAWAY-BELOW FORKS10-22-2018DISCHARGE (KAF)104025
102TEAI1TETON-NEAR ST. ANTHONY10-22-2018DISCHARGE (KAF)9110389
103RILW1TIETON-RIMROCK LAKE NEAR RIMROCK10-22-2018INFLOW (KAF)356753
104PDTO3UMATILLA-AT PENDLETON10-22-2018DISCHARGE (KAF)798099
105GIBO3UMATILLA-NEAR GIBBON10-22-2018DISCHARGE (KAF)303488
106UMAO3UMATILLA-NEAR UMATILLA10-22-2018DISCHARGE (KAF)11484135
107TCHW1WALLA WALLA-NEAR TOUCHET10-22-2018DISCHARGE (KAF)9112076
108WSRI1WEISER-NEAR WEISER10-22-2018DISCHARGE (KAF)428152
109PESW1WENATCHEE-AT PESHASTIN10-22-2018DISCHARGE (KAF)17729959
110UNDW1WHITE SALMON-NEAR UNDERWOOD10-22-2018DISCHARGE (KAF)23524098
111RIDI1WILLOW CREEK-RIRIE DAM10-22-2018INFLOW (KAF)8899
112EASW1YAKIMA-AT EASTON10-22-2018DISCHARGE (KAF)586885
113KIOW1YAKIMA-AT KIONA10-22-2018DISCHARGE (KAF)57570482
114UMTW1YAKIMA-AT UMTANUM10-22-2018DISCHARGE (KAF)23424795
115KEDW1YAKIMA-KEECHELUS LAKE10-22-2018INFLOW (KAF)335263
116PARW1YAKIMA-NEAR PARKER10-22-2018DISCHARGE (KAF)36647577